Selibe-Phikwe, Botswana

10:56 PM CAT on August 27, 2015 (GMT +0200)
Francistown | | Change Station
CLOSE
Current Station
Airport
Location: Francistown,
Elevation: 3281 ft
Nearby Weather Stations

Elev 3281 ft 21.16 °S, 27.48 °E | Updated 56 minutes ago

Clear
Clear
63 °F
Feels Like 63 °F
N
7
Wind Variable Wind from SE

Today
High -- | Low -- °F
--% Chance of Precip.
Yesterday
High -- | Low -- °F
Precip. -- in
6:23 AM 5:57 PM
Waxing Gibbous, 95% visible
Pressure 30.18 in
Visibility -9999.0 miles
Clouds
Dew Point 37 °F
Humidity 39%
Rainfall 0.00 in
Snow Depth Not available.
UV Not available.
Pollen Not available.
Air Quality Not available.
Flu Activity Not available.
METAR FBFT 272000Z 13006KT CAVOK 17/03 Q1022
Pressure 30.18 in
Visibility -9999.0 miles
Clouds
Dew Point 37 °F
Humidity 39%
Rainfall 0.00 in
Snow Depth Not available.
UV Not available.
Pollen Not available.
Air Quality Not available.
Flu Activity Not available.
METAR FBFT 272000Z 13006KT CAVOK 17/03 Q1022

10-Day Weather Forecast

×

Almanac

Astronomy

Aug. 27, 2015 Rise Set
Actual Time
Civil Twilight
Nautical Twilight
Astronomical Twilight
Moon
Length of Visible Light
Length of Day
Tomorrow will be .
, % of the Moon is Illuminated

Today's Extremes

Country Highs Country Lows

Community

WunderPhotos

Upload Photos

1,850,212 photos uploaded!

WunderBlogs® & News

Nearby

Air Quality

  Air Quality AQ Index Pollutant
Not available.

Snow Depth

Station Depth Elevation

Earthquake Activity

City Distance Mag. Time & Date
Minimum magnitude displayed is 2.5.

Coastal Water Temperatures

Place Temperature

Stations

Nearby Weather Stations

Station Location Temp. Windchill Dew Point Humidity Wind Precip. Elev Updated Type